[[{"header":{"parameterUnit":"m.s-1","parameterCategory":1,"la1":30.2991,"la2":30.254,"lo1":-89.0895,"lo2":-89.0444,"dy":0.0017,"dx":0.0017,"nx":28,"ny":28,"refTime":"2024-03-13T21:00:00:Z","depth":0,"parameterNumber":2,"parameterNumberName":"U-component_of_WINDS"},"data":[0,0,0,0,0,0,0,0,0,0,0,0,0,0,0,0,0,0,0,0,0,0,0,0,0,0,0,0,0,0,0,0,0,0,0,0,0,0,0,0,0,0,0,0,0,0,0,0,0,0,0,0,0,0,0,0,0,0,-2.1038,-2.1038,0,-2.1068,-2.1068,-2.1069,-2.1061,-2.106,-2.106,-2.1059,-2.1091,-2.1093,-2.1094,0,0,0,0,0,0,0,0,0,0,0,0,0,-2.0973,-2.0974,-2.1038,-2.1038,-2.1038,-2.1068,-2.1068,-2.1069,-2.1061,-2.106,-2.106,-2.1059,-2.1091,-2.1093,-2.1094,0,0,0,0,0,0,0,0,0,0,0,0,0,-2.1002,-2.0975,-2.1037,-2.1038,-2.1038,-2.1068,-2.1068,-2.1069,-2.1061,-2.106,-2.106,-2.1059,-2.109,-2.1092,-2.1095,-2.1126,0,0,-2.1101,-2.1102,0,0,0,0,0,0,0,0,-2.1001,-2.1005,-2.1038,-2.1038,-2.1039,-2.106,-2.1058,-2.1088,-2.1062,-2.1053,-2.1059,-2.1058,-2.1082,-2.1084,-2.1092,-2.1127,-2.1129,-2.1101,-2.1102,-2.1103,-2.1104,0,0,0,0,0,0,0,-2.0999,-2.1003,-2.105,-2.1038,-2.1039,-2.1037,-2.104,-2.1063,-2.1072,-2.1053,-2.1053,-2.1057,-2.1082,-2.109,-2.1093,-2.1129,-2.1101,-2.1103,-2.1104,-2.1105,-2.119,-2.1191,0,0,0,0,0,0,-2.0996,-2.1002,-2.1049,-2.1051,-2.1017,-2.1039,-2.1042,-2.1054,-2.1072,-2.1073,-2.1057,-2.1056,-2.1087,-2.109,-2.1094,-2.1131,-2.1103,-2.1105,-2.1107,-2.1189,-2.119,-2.1192,0,0,0,0,0,0,-2.0995,-2.1,-2.1047,-2.1026,-2.1032,-2.1041,-2.1054,-2.1055,-2.1063,-2.1075,-2.1076,-2.1064,-2.1086,-2.1091,-2.1118,-2.1132,-2.1106,-2.1108,-2.1188,-2.119,-2.1191,-2.1205,0,0,0,0,0,0,-2.0993,-2.1,-2.1012,-2.1026,-2.1033,-2.107,-2.1055,-2.1056,-2.1067,-2.1066,-2.1081,-2.1083,-2.1086,-2.1114,-2.112,-2.1134,-2.111,-2.1187,-2.1189,-2.1191,-2.1203,-2.1206,-2.1209,0,0,0,0,0,-2.0991,-2.1015,-2.1012,-2.1018,-2.1048,-2.1071,-2.1075,-2.1078,-2.1068,-2.108,-2.1087,-2.1083,-2.113,-2.1117,-2.1123,-2.1138,-2.1186,-2.1188,-2.119,-2.1201,-2.1206,-2.1209,0,0,0,0,0,0,-2.1002,-2.1017,-2.1014,-2.1044,-2.1056,-2.107,-2.1085,-2.1082,-2.1098,-2.1096,-2.1099,-2.1102,-2.1129,-2.1137,-2.1123,-2.1169,-2.1156,-2.116,-2.1163,-2.1167,-2.117,-2.1167,-2.1112,0,0,0,0,0,-2.1008,-2.1025,-2.1037,-2.1062,-2.1069,-2.1076,-2.1086,-2.1087,-2.11,-2.1105,-2.1114,-2.1128,-2.1145,-2.1157,-2.1174,-2.1204,-2.1207,-2.1218,-2.1221,-2.1224,-2.1226,-2.1242,-2.1247,-2.1199,-2.1199,-2.1199,0,0,-2.102,-2.103,-2.1041,-2.1065,-2.1074,-2.1092,-2.108,-2.11,-2.1113,-2.1108,-2.1133,-2.1141,-2.1156,-2.1184,-2.1197,-2.1191,-2.124,-2.1226,-2.1228,-2.123,-2.1245,-2.1249,-2.1253,-2.12,-2.12,-2.12,0,0,-2.1051,-2.1061,-2.1082,-2.1092,-2.1107,-2.1112,-2.1117,-2.1131,-2.1135,-2.1161,-2.1157,-2.1174,-2.1204,-2.1215,-2.1224,-2.1259,-2.1255,-2.1265,-2.1281,-2.1296,-2.13,-2.1303,-2.1315,-2.1319,-2.1268,-2.1268,-2.1268,0,-2.1065,-2.1091,-2.1094,-2.1113,-2.1124,-2.112,-2.1141,-2.1151,-2.1171,-2.1178,-2.1171,-2.1209,-2.1219,-2.1249,-2.1258,-2.1266,-2.1271,-2.1262,-2.1299,-2.1303,-2.1306,-2.1317,-2.1321,-2.1269,-2.1269,-2.1268,-2.1268,0,-2.1106,-2.1125,-2.114,-2.1159,-2.1171,-2.1191,-2.1197,-2.1209,-2.1209,-2.1214,-2.124,-2.1252,-2.1271,-2.1278,-2.1279,-2.1309,-2.1304,-2.1299,-2.1286,-2.1311,-2.1322,-2.1326,-2.127,-2.127,-2.1269,-2.1269,0,0,-2.1145,-2.1164,-2.117,-2.1178,-2.1194,-2.1208,-2.1229,-2.1247,-2.1256,-2.1271,-2.1287,-2.1313,-2.1308,-2.1318,-2.132,-2.1334,-2.136,-2.1326,-2.1327,-2.1331,-2.1392,-2.1395,-2.14,-2.1358,-2.1359,-2.1359,-2.139,0,-2.1176,-2.1211,-2.1214,-2.1246,-2.1262,-2.126,-2.1277,-2.1289,-2.1295,-2.131,-2.1317,-2.1334,-2.1326,-2.1333,-2.1346,-2.1353,-2.1372,-2.1352,-2.1373,-2.1373,-2.1367,-2.1406,-2.1409,-2.1438,-2.1394,-2.1395,-2.1396,0,-2.1218,-2.1232,-2.1265,-2.1278,-2.1285,-2.1301,-2.1317,-2.1332,-2.1346,-2.1349,-2.1361,-2.136,-2.1381,-2.1369,-2.1397,-2.1383,-2.1393,-2.1398,-2.1399,-2.14,-2.1385,-2.1406,-2.1447,-2.1451,-2.1402,-2.1402,-2.1401,0,-2.1241,-2.1268,-2.1291,-2.1299,-2.1315,-2.1326,-2.1333,-2.1346,-2.1356,-2.1371,-2.1377,-2.1395,-2.1404,-2.1417,-2.1422,-2.1412,-2.145,-2.1438,-2.1453,-2.1452,-2.1459,-2.1459,-2.1501,-2.1468,-2.1468,-2.1468,-2.1468,0,-2.1275,-2.1295,-2.1302,-2.1316,-2.1338,-2.1341,-2.1364,-2.137,-2.1382,-2.1397,-2.1396,-2.1411,-2.1416,-2.1432,-2.1436,-2.1458,-2.1463,-2.1466,-2.1466,-2.1465,-2.1464,-2.147,-2.1468,-2.1469,-2.1469,-2.1468,-2.1468,0,-2.1303,-2.1309,-2.1334,-2.1347,-2.1351,-2.1367,-2.1378,-2.1392,-2.1397,-2.1417,-2.1421,-2.143,-2.1448,-2.1455,-2.1477,-2.148,-2.1505,-2.1505,-2.15,-2.15,-2.1514,-2.1512,-2.156,-2.1566,-2.153,-2.153,-2.1531,0,-2.1324,-2.1339,-2.1354,-2.1364,-2.1371,-2.1388,-2.1398,-2.1402,-2.1413,-2.1429,-2.1441,-2.1459,-2.1473,-2.1502,-2.1511,-2.1528,-2.1527,-2.1543,-2.153,-2.1528,-2.1526,-2.1524,-2.1525,-2.1545,-2.1545,-2.1546,-2.1546,0,-2.136,-2.1362,-2.1376,-2.1392,-2.1404,-2.1417,-2.143,-2.1438,-2.1444,-2.1456,-2.1474,-2.1486,-2.1508,-2.1526,-2.1543,-2.1551,-2.1549,-2.155,-2.1554,-2.1552,-2.1548,-2.1549,-2.1506,-2.1549,-2.1548,-2.1548,-2.1548,-2.1548,-2.1384,-2.1397,-2.1409,-2.1426,-2.1435,-2.1447,-2.146,-2.1467,-2.1482,-2.15,-2.1502,-2.1521,-2.1534,-2.1557,-2.1566,-2.1581,-2.1577,-2.1583,-2.1584,-2.1585,-2.1585,-2.1547,-2.1584,-2.1584,-2.1584,-2.1584,-2.1584,0,-2.1419,-2.1426,-2.1441,-2.1458,-2.1471,-2.1468,-2.1482,-2.1493,-2.1509,-2.1521,-2.1535,-2.1556,-2.1573,-2.1583,-2.16,-2.1611,-2.161,-2.1615,-2.1613,-2.1615,-2.1589,-2.1583,-2.1615,-2.1615,-2.1615,-2.1615,-2.1615,-2.1615,-2.1438,-2.1459,-2.1463,-2.1489,-2.1496,-2.1515,-2.1522,-2.1533,-2.1542,-2.1565,-2.1579,-2.1585,-2.1597,-2.1614,-2.163,-2.1632,-2.1638,-2.1643,-2.1645,-2.162,-2.1617,-2.1614,-2.1608,-2.1645,-2.1645,-2.1669,-2.167,-2.167]},{"header":{"parameterUnit":"m.s-1","parameterCategory":1,"la1":30.2991,"la2":30.254,"lo1":-89.0895,"lo2":-89.0444,"dy":0.0017,"dx":0.0017,"nx":28,"ny":28,"refTime":"2024-03-13T21:00:00:Z","depth":0,"parameterNumber":3,"parameterNumberName":"V-component_of_WINDS"},"data":[0,0,0,0,0,0,0,0,0,0,0,0,0,0,0,0,0,0,0,0,0,0,0,0,0,0,0,0,0,0,0,0,0,0,0,0,0,0,0,0,0,0,0,0,0,0,0,0,0,0,0,0,0,0,0,0,0,0,2.8539,2.8539,0,2.8515,2.8514,2.8514,2.847,2.8469,2.8469,2.8468,2.8442,2.8442,2.8442,0,0,0,0,0,0,0,0,0,0,0,0,0,2.8549,2.855,2.8539,2.8539,2.8539,2.8515,2.8514,2.8514,2.847,2.8469,2.8468,2.8467,2.8442,2.8442,2.8442,0,0,0,0,0,0,0,0,0,0,0,0,0,2.8537,2.855,2.854,2.8514,2.8512,2.8515,2.8514,2.8514,2.8471,2.8469,2.8468,2.8467,2.8442,2.8442,2.8442,2.8468,0,0,2.8443,2.8443,0,0,0,0,0,0,0,0,2.8538,2.8537,2.8518,2.8516,2.8513,2.8494,2.8509,2.8499,2.8471,2.8486,2.8468,2.8466,2.846,2.8459,2.8457,2.8467,2.8466,2.8443,2.8443,2.8443,2.8443,0,0,0,0,0,0,0,2.8539,2.8538,2.853,2.8518,2.8515,2.8504,2.8501,2.8506,2.8481,2.8485,2.8481,2.8479,2.8459,2.8457,2.8456,2.8466,2.8443,2.8443,2.8443,2.8443,2.8498,2.8499,0,0,0,0,0,0,2.8543,2.8539,2.853,2.8529,2.8523,2.8505,2.8502,2.8502,2.848,2.8476,2.848,2.8477,2.8457,2.8456,2.8455,2.8486,2.8443,2.8443,2.8443,2.8496,2.8498,2.85,0,0,0,0,0,0,2.8544,2.8543,2.8531,2.8533,2.8531,2.8506,2.8507,2.8502,2.85,2.8477,2.8472,2.8483,2.8456,2.8455,2.8466,2.8484,2.8443,2.8443,2.8495,2.8497,2.8499,2.8547,0,0,0,0,0,0,2.8544,2.8543,2.8553,2.8533,2.8531,2.8543,2.8508,2.8502,2.85,2.8496,2.8479,2.8474,2.8455,2.8466,2.8466,2.8484,2.8443,2.8493,2.8496,2.8498,2.8543,2.855,2.8556,0,0,0,0,0,2.8545,2.8567,2.8553,2.8553,2.8542,2.8544,2.8542,2.852,2.8502,2.8512,2.8497,2.8475,2.8482,2.8467,2.8467,2.8485,2.8492,2.8495,2.8498,2.854,2.8549,2.8556,0,0,0,0,0,0,2.8588,2.8563,2.8549,2.8565,2.8557,2.8536,2.8547,2.8529,2.8525,2.8522,2.8494,2.849,2.8505,2.8496,2.848,2.851,2.8484,2.8487,2.8516,2.8524,2.853,2.8532,2.8443,0,0,0,0,0,2.86,2.8603,2.8581,2.8598,2.8595,2.8572,2.8572,2.8555,2.8546,2.8542,2.8528,2.852,2.852,2.8521,2.852,2.8541,2.8538,2.8554,2.856,2.8565,2.8569,2.8581,2.8589,2.851,2.851,2.851,0,0,2.8623,2.861,2.8614,2.8606,2.8598,2.8603,2.8569,2.8575,2.8579,2.8543,2.8553,2.8543,2.8532,2.8549,2.8555,2.8541,2.859,2.8569,2.8574,2.8574,2.8585,2.8593,2.86,2.8512,2.8511,2.8511,0,0,2.867,2.8659,2.8673,2.8666,2.8654,2.8639,2.8643,2.8625,2.8617,2.8627,2.8601,2.8604,2.8605,2.8599,2.8596,2.8642,2.8622,2.8642,2.8675,2.8688,2.8694,2.87,2.8718,2.8724,2.8645,2.8645,2.8645,0,2.8701,2.8707,2.8682,2.8691,2.8689,2.8657,2.8671,2.8665,2.8654,2.8654,2.8638,2.864,2.863,2.8646,2.8657,2.8655,2.8659,2.8644,2.8695,2.87,2.8705,2.8722,2.8729,2.8648,2.8648,2.8647,2.8647,0,2.8747,2.8752,2.8764,2.8755,2.8754,2.8765,2.8743,2.8745,2.8729,2.8716,2.8727,2.8714,2.8711,2.8713,2.8697,2.8728,2.872,2.87,2.8673,2.8716,2.8732,2.8738,2.8652,2.8651,2.865,2.8649,0,0,2.882,2.8798,2.8803,2.8799,2.8784,2.8788,2.8798,2.8795,2.8799,2.8792,2.8801,2.8803,2.8785,2.8782,2.8765,2.8776,2.8816,2.8755,2.8754,2.8768,2.8851,2.8867,2.8875,2.8802,2.8803,2.8804,2.8852,0,2.8864,2.8881,2.886,2.8881,2.8886,2.8857,2.8866,2.8858,2.8847,2.885,2.8836,2.8839,2.8814,2.8813,2.8822,2.8809,2.8832,2.8805,2.8811,2.8812,2.8817,2.8883,2.8899,2.8946,2.8858,2.8859,2.886,0,2.8918,2.8915,2.8938,2.8923,2.8925,2.8933,2.893,2.8933,2.8924,2.8915,2.8912,2.8892,2.8902,2.8875,2.8889,2.8871,2.8873,2.8867,2.8868,2.8869,2.8839,2.8887,2.896,2.8968,2.8869,2.8868,2.8867,0,2.8972,2.8973,2.8987,2.8985,2.8968,2.8975,2.8968,2.8958,2.8959,2.8956,2.8956,2.8954,2.8954,2.8953,2.8933,2.8915,2.8951,2.8921,2.8945,2.8945,2.8955,2.8955,2.903,2.8953,2.8952,2.8952,2.8952,0,2.9025,2.904,2.9012,2.9021,2.9037,2.9013,2.903,2.902,2.9012,2.9019,2.8993,2.9,2.8973,2.8977,2.8962,2.8977,2.8977,2.897,2.8966,2.8974,2.8975,2.8975,2.8972,2.8954,2.8954,2.8953,2.8953,0,2.9088,2.9069,2.9083,2.9066,2.9063,2.9076,2.9062,2.907,2.9056,2.9066,2.9066,2.9046,2.905,2.903,2.903,2.902,2.9044,2.9034,2.9048,2.9045,2.907,2.9069,2.915,2.916,2.9075,2.9075,2.9076,0,2.9124,2.9136,2.912,2.9123,2.9118,2.9123,2.9124,2.91,2.9102,2.9094,2.9103,2.9105,2.9106,2.9114,2.9099,2.91,2.9091,2.9119,2.9091,2.9098,2.9094,2.9094,2.9096,2.9126,2.9127,2.9128,2.9128,0,2.9191,2.9181,2.9183,2.9183,2.9184,2.9182,2.9179,2.9183,2.9157,2.9161,2.9165,2.9166,2.9167,2.917,2.9168,2.9161,2.9142,2.9137,2.9143,2.9152,2.916,2.9158,2.9066,2.9136,2.9135,2.9134,2.9134,2.9134,2.9243,2.9252,2.9244,2.9247,2.9242,2.924,2.9247,2.9235,2.9238,2.9238,2.9223,2.9231,2.9223,2.9219,2.9214,2.922,2.9207,2.9215,2.9217,2.922,2.9225,2.9158,2.9219,2.9219,2.9219,2.9219,2.9218,0,2.931,2.9303,2.9306,2.9303,2.9306,2.9287,2.9282,2.9286,2.9293,2.9288,2.9289,2.9295,2.9298,2.9284,2.9285,2.9293,2.9284,2.9295,2.9295,2.9294,2.9236,2.9232,2.9302,2.9302,2.9302,2.9302,2.9302,2.9302,2.9345,2.9361,2.9351,2.9364,2.9357,2.9365,2.9364,2.9362,2.9358,2.9366,2.9368,2.9359,2.9351,2.9351,2.9354,2.935,2.9352,2.9366,2.9359,2.9306,2.9298,2.929,2.9286,2.9367,2.9367,2.9417,2.9418,2.9418]}]]